• In Romania
  • List of Countries
  • For 7 days
  • Water Temperature
  • Satellite Maps
  • Weather Map
  • Weather Widgets
  • user-avatar
    Login

    Hourly Weather Kitzbuhel

    Today, 21 July, Saturday

    Time Temperature Precipitation Wind Pressure Humidity
    00:00 +16°C° 0.2 mm 1 mps 676 mmHg 86%
    01:00 +16°C° 0.2 mm 1 mps 676 mmHg 86%
    02:00 +15°C° 0.1 mm 1 mps 676 mmHg 86%
    03:00 +15°C° 0.1 mm 1 mps 675 mmHg 86%
    04:00 +15°C° 0.1 mm 1 mps 675 mmHg 85%
    05:00 +16°C° 0.1 mm 1 mps 675 mmHg 84%
    06:00 +18°C° 0.1 mm 1 mps 675 mmHg 82%
    07:00 +19°C° 0.1 mm 1 mps 676 mmHg 81%
    08:00 +20°C° 0.4 mm 1 mps 676 mmHg 77%
    09:00 +21°C° 0.4 mm 1 mps 676 mmHg 74%
    10:00 +22°C° 0.4 mm 1 mps 676 mmHg 71%
    11:00 +22°C° 0.9 mm 1 mps 676 mmHg 70%
    12:00 +23°C° 0.9 mm 1 mps 676 mmHg 70%
    13:00 +23°C° 0.9 mm 1 mps 676 mmHg 69%
    14:00 +22°C° 1.3 mm 1 mps 676 mmHg 75%
    15:00 +21°C° 1.3 mm 1 mps 675 mmHg 81%
    16:00 +20°C° 1.3 mm 1 mps 675 mmHg 87%
    17:00 +20°C° 1.1 mm 1 mps 675 mmHg 89%
    18:00 +19°C° 1.1 mm 1 mps 675 mmHg 92%
    19:00 +18°C° 1.1 mm 1 mps 675 mmHg 94%
    20:00 +16°C° 0.8 mm 1 mps 675 mmHg 95%
    21:00 +16°C° 0.8 mm 1 mps 675 mmHg 96%
    22:00 +15°C° 0.8 mm 1 mps 676 mmHg 97%
    23:00 +15°C° 0.4 mm 1 mps 676 mmHg 97%

    Tomorrow, 22 July, Sunday

    Time Temperature Precipitation Wind Pressure Humidity
    00:00 +15°C° 0.4 mm 1 mps 676 mmHg 97%
    01:00 +15°C° 0.4 mm 1 mps 676 mmHg 98%
    02:00 +15°C° 0.6 mm 1 mps 676 mmHg 98%
    03:00 +15°C° 0.6 mm 1 mps 675 mmHg 98%
    04:00 +14°C° 0.6 mm 1 mps 675 mmHg 98%
    05:00 +15°C° 0.8 mm 1 mps 675 mmHg 97%
    06:00 +15°C° 0.8 mm 1 mps 676 mmHg 97%
    07:00 +15°C° 0.8 mm 1 mps 676 mmHg 96%
    08:00 +15°C° 0.9 mm 1 mps 676 mmHg 96%
    09:00 +15°C° 0.9 mm 1 mps 676 mmHg 95%
    10:00 +15°C° 0.9 mm 1 mps 676 mmHg 94%
    11:00 +16°C° 0.5 mm 1 mps 676 mmHg 92%
    12:00 +16°C° 0.5 mm 1 mps 676 mmHg 89%
    13:00 +18°C° 0.5 mm 1 mps 676 mmHg 87%
    14:00 +19°C° 0.3 mm 1 mps 676 mmHg 82%
    15:00 +20°C° 0.3 mm 1 mps 676 mmHg 78%
    16:00 +21°C° 0.3 mm 1 mps 676 mmHg 73%
    17:00 +21°C° 0.4 mm 1 mps 676 mmHg 79%
    18:00 +20°C° 0.4 mm 1 mps 675 mmHg 84%
    19:00 +19°C° 0.4 mm 1 mps 675 mmHg 89%
    20:00 +18°C° 0.2 mm 1 mps 675 mmHg 92%
    21:00 +16°C° 0.2 mm 1 mps 675 mmHg 94%
    22:00 +14°C° 0.2 mm 1 mps 675 mmHg 96%
    23:00 +14°C° 0 mm 1 mps 675 mmHg 97%

    Day after tomorrow, 23 July, Monday

    Time Temperature Precipitation Wind Pressure Humidity
    00:00 +14°C° 0 mm 1 mps 675 mmHg 97%
    01:00 +13°C° 0 mm 1 mps 675 mmHg 97%
    02:00 +13°C° 0.1 mm 2 mps 675 mmHg 97%
    03:00 +13°C° 0.1 mm 2 mps 675 mmHg 97%
    04:00 +13°C° 0.1 mm 2 mps 675 mmHg 96%
    05:00 +14°C° 0.2 mm 2 mps 675 mmHg 95%
    06:00 +14°C° 0.2 mm 2 mps 675 mmHg 94%
    07:00 +15°C° 0.2 mm 2 mps 676 mmHg 93%
    08:00 +16°C° 0.2 mm 2 mps 676 mmHg 90%
    09:00 +17°C° 0.2 mm 2 mps 676 mmHg 87%
    10:00 +18°C° 0.2 mm 2 mps 676 mmHg 84%
    11:00 +19°C° 0.3 mm 2 mps 676 mmHg 81%
    12:00 +20°C° 0.3 mm 2 mps 677 mmHg 78%
    13:00 +21°C° 0.3 mm 2 mps 677 mmHg 75%
    14:00 +21°C° 0.5 mm 2 mps 677 mmHg 77%
    15:00 +21°C° 0.5 mm 2 mps 677 mmHg 78%
    16:00 +21°C° 0.5 mm 2 mps 677 mmHg 79%
    17:00 +20°C° 0.7 mm 2 mps 677 mmHg 83%
    18:00 +20°C° 0.7 mm 1 mps 677 mmHg 88%
    19:00 +19°C° 0.7 mm 1 mps 677 mmHg 93%
    20:00 +18°C° 0.1 mm 1 mps 677 mmHg 94%
    21:00 +16°C° 0.1 mm 1 mps 677 mmHg 95%
    22:00 +15°C° 0.1 mm 2 mps 677 mmHg 96%
    23:00 +15°C° 0 mm 2 mps 677 mmHg 96%

    24 July, Tuesday

    Time Temperature Precipitation Wind Pressure Humidity
    00:00 +14°C° 0 mm 2 mps 677 mmHg 97%
    01:00 +14°C° 0 mm 2 mps 677 mmHg 97%
    02:00 +13°C° 0 mm 2 mps 677 mmHg 96%
    03:00 +13°C° 0 mm 2 mps 677 mmHg 96%
    04:00 +13°C° 0 mm 1 mps 677 mmHg 96%
    05:00 +14°C° 0 mm 1 mps 677 mmHg 94%
    06:00 +15°C° 0 mm 1 mps 677 mmHg 91%
    07:00 +18°C° 0 mm 1 mps 677 mmHg 89%
    08:00 +20°C° 0 mm 1 mps 678 mmHg 78%
    09:00 +22°C° 0 mm 1 mps 678 mmHg 67%
    10:00 +25°C° 0 mm 1 mps 678 mmHg 56%
    11:00 +25°C° 0 mm 1 mps 678 mmHg 53%
    12:00 +26°C° 0 mm 1 mps 678 mmHg 51%
    13:00 +27°C° 0 mm 2 mps 678 mmHg 48%
    14:00 +26°C° 0.2 mm 2 mps 677 mmHg 53%
    15:00 +26°C° 0.2 mm 2 mps 677 mmHg 57%
    16:00 +26°C° 0.2 mm 2 mps 677 mmHg 61%
    17:00 +24°C° 0.3 mm 2 mps 677 mmHg 70%
    18:00 +23°C° 0.3 mm 1 mps 676 mmHg 78%
    19:00 +21°C° 0.3 mm 1 mps 676 mmHg 86%
    20:00 +20°C° 0.1 mm 1 mps 676 mmHg 89%
    21:00 +19°C° 0.1 mm 1 mps 676 mmHg 93%
    22:00 +16°C° 0.1 mm 1 mps 676 mmHg 96%
    23:00 +16°C° 0 mm 1 mps 676 mmHg 96%

    25 July, Wednesday

    Time Temperature Precipitation Wind Pressure Humidity
    00:00 +15°C° 0 mm 1 mps 676 mmHg 97%
    01:00 +15°C° 0 mm 1 mps 676 mmHg 97%
    02:00 +15°C° 0 mm 1 mps 676 mmHg 97%
    03:00 +15°C° 0 mm 1 mps 676 mmHg 97%
    04:00 +14°C° 0 mm 1 mps 676 mmHg 97%
    05:00 +16°C° 0 mm 1 mps 676 mmHg 94%
    06:00 +18°C° 0 mm 1 mps 677 mmHg 92%
    07:00 +19°C° 0 mm 1 mps 677 mmHg 90%
    08:00 +20°C° 0 mm 1 mps 677 mmHg 81%
    09:00 +22°C° 0 mm 1 mps 677 mmHg 72%
    10:00 +24°C° 0 mm 1 mps 678 mmHg 63%
    11:00 +24°C° 0.1 mm 2 mps 678 mmHg 61%
    12:00 +25°C° 0.1 mm 2 mps 677 mmHg 58%
    13:00 +25°C° 0.1 mm 2 mps 677 mmHg 56%
    14:00 +25°C° 0.2 mm 2 mps 677 mmHg 57%
    15:00 +25°C° 0.2 mm 2 mps 677 mmHg 58%
    16:00 +25°C° 0.2 mm 2 mps 677 mmHg 59%
    17:00 +23°C° 0.2 mm 2 mps 677 mmHg 68%
    18:00 +22°C° 0.2 mm 1 mps 677 mmHg 76%
    19:00 +21°C° 0.2 mm 1 mps 677 mmHg 84%
    20:00 +19°C° 0 mm 1 mps 677 mmHg 88%
    21:00 +18°C° 0 mm 1 mps 677 mmHg 91%
    22:00 +16°C° 0 mm 1 mps 677 mmHg 94%
    23:00 +15°C° 0 mm 2 mps 677 mmHg 94%

    26 July, Thursday

    Time Temperature Precipitation Wind Pressure Humidity
    00:00 +15°C° 0 mm 2 mps 677 mmHg 94%
    01:00 +14°C° 0 mm 2 mps 677 mmHg 94%
    02:00 +14°C° 0 mm 2 mps 677 mmHg 94%
    03:00 +14°C° 0 mm 2 mps 677 mmHg 93%
    04:00 +13°C° 0 mm 2 mps 677 mmHg 92%
    05:00 +15°C° 0 mm 2 mps 678 mmHg 89%
    06:00 +16°C° 0 mm 2 mps 678 mmHg 85%
    07:00 +18°C° 0 mm 1 mps 679 mmHg 82%
    08:00 +20°C° 0.1 mm 1 mps 679 mmHg 74%
    09:00 +22°C° 0.1 mm 1 mps 679 mmHg 67%
    10:00 +24°C° 0.1 mm 1 mps 680 mmHg 59%
    11:00 +25°C° 0 mm 1 mps 679 mmHg 55%
    12:00 +26°C° 0 mm 2 mps 679 mmHg 51%
    13:00 +27°C° 0 mm 2 mps 679 mmHg 47%
    14:00 +26°C° 0 mm 2 mps 679 mmHg 49%
    15:00 +26°C° 0 mm 2 mps 679 mmHg 51%
    16:00 +26°C° 0 mm 2 mps 679 mmHg 52%
    17:00 +25°C° 0.1 mm 2 mps 679 mmHg 62%
    18:00 +23°C° 0.1 mm 1 mps 679 mmHg 72%
    19:00 +22°C° 0.1 mm 1 mps 678 mmHg 82%
    20:00 +20°C° 0 mm 1 mps 679 mmHg 85%
    21:00 +19°C° 0 mm 1 mps 679 mmHg 89%
    22:00 +16°C° 0 mm 1 mps 679 mmHg 93%
    23:00 +16°C° 0 mm 1 mps 678 mmHg 93%
    Show more